Tracking 31027 objects as of 19-Jul-2025
HD Live streaming from Space Station
objects crossing your sky now

DELTA 2 R/B(2)

Track DELTA 2 R/B(2) now!


NORAD ID: 26115
Int'l Code: 2000-017C
Perigee: 614.4 km
Apogee: 46,371.5 km
Inclination: 93.9 °
Period: 856.0 minutes
Semi major axis: 29863 km
RCS: 1.953 m2 (large)
Launch date: March 25, 2000
Source: United States (US)
Launch site: AIR FORCE WESTERN TEST RANGE (AFWTR)

Note: This is a ROCKET BODY
Your satellite tracking list
FLOCK 3P 17
Track 1 satellite(s)




NASA's NSSDC Master Catalog

Two Line Element Set (TLE):
1 26115U 00017C   25199.37640741  .00000015  00000-0  71330-2 0  9993
2 26115  93.8595 310.5087 7660926 330.3111   2.5249  1.68221886155485
Source of the keplerian elements: AFSPC